FENGYUN 1C DEB

Satellite information

Favourite Embed

Satellite Type and Status

DEBRISIN ORBIT

Key statistics

Satellite FENGYUN 1C DEB at a glance.

Uptime

9615

Days in orbit

Revolutions

≈ 14.4

Per day

Orbit

SSO

Sun Synchronous Orbit

Inclination

98.9

Latest

Satellite identification and parameters

Extended collection of information and parameters for FENGYUN 1C DEB.

Object identification

Identified? True

Debris? True

Object name: FENGYUN 1C DEB

International designator: 1999-025CTE

Object number (NORAD): 32160

Object ID (CCSDS): 32160

Country: PEOPLES REPUBLIC OF CHINA (PRC)

Current information (Y/N): Y

RCS size: SMALL

Orbital parameters

Period: 100.204 minutes

Inclination: 98.8739 deg

SMA: 7146.357 km

Apoapsis: 826.777 km

Periapsis: 709.666 km

RAAN: 40.0926 deg

Eccentricy: 0.00819374

Argument of periapsis: 295.2034 deg

Mean anomaly: 64.0673 deg

Mean motion: 14.37062752 rev/day

Mean motion (dot): 0.00002628 rev/day2

B* drag term: 0.00086734909 1/REarth

Two-line elements (TLE)

Creation date: Sept. 3, 2025, 10:15 a.m.

Reference frame: TEME

Reference center: EARTH

Epoch: Sept. 3, 2025, 3:53 a.m. UTC

TLE line 0: 0 FENGYUN 1C DEB

TLE line 1: 1 32160U 99025CTE 25246.16238691 .00002628 00000-0 86735-3 0 9992

TLE line 2: 2 32160 98.8739 40.0926 0081937 295.2034 64.0673 14.37062752944428

Live tracking on map

Real-time ground track for satellite FENGYUN 1C DEB.

In-orbit conjunctions

A list of the most updated potential collisions computed for object FENGYUN 1C DEB.

Target Orbit TCA Probability of collision Miss distance Type
IRS P4 (OCEANSAT 1) SSO 2025-06-19 23:43:17 0.0007673716 51.0 (m) PAYLOAD
CZ-6A DEB LEO 2025-02-19 20:53:33 0.0003662614 728.0 (m) DEBRIS

Associated space launch

Chinese polar orbiting meteorological satellite

FENGYUN 1C DEB was lifted into orbit during the mission ‘Long March 4B | Feng Yun 1C’, on board a Long March 4B space rocket.

The launch took place on May 10, 1999, 1:33 a.m. from Launch Complex 7.

For more information about the launch, click the button.

Launch to space Long March 4B | Feng Yun 1C
Long March 4B | Feng Yun 1C

Agency: N/A

Status: Launch Successful

Launch date: May 10, 1999, 1:33 a.m. UTC

Rocket: Long March 4B

Launch pad: Launch Complex 7

Location: Taiyuan Satellite Launch Center, People's Republic of China

...

Latest news about this satellite

There are no fresh news available about this satellite. Check back as we update our databases every day.


Newsletter sign-up

Weekly statistics, charts and insights to help you stay on top of the space industry.